EW2672 Weather Reports


Display with metric or nautical units.
time (UTC)temp
F
wind
direction
speed
MPH
gust
MPH
rain 1hr
in
rain 24hr
in
rain mn
in
humidity
%
barometer
mb
20260906045908 83 0.0 0.0 0.00 0.00 0.00 71 1014.0
20260906045406 83 0.0 1.0 0.00 0.00 0.00 71 1014.1
20260906044902 83 0.0 1.0 0.00 0.00 0.00 71 1014.2
20260906044400 83 0.0 3.0 0.00 0.00 0.00 70 1014.1
20260906043858 83 0.0 5.0 0.00 0.00 0.00 70 1014.0
20260906043356 83 139 1.0 5.0 0.00 0.00 0.00 70 1014.0
20260906042852 83 0.0 1.0 0.00 0.00 0.00 70 1014.0
20260906042350 84 0.0 3.0 0.00 0.00 0.00 69 1013.9
20260906041848 84 0.0 3.0 0.00 0.00 0.00 69 1013.9
20260906041346 84 0.0 2.0 0.00 0.00 0.00 69 1013.8
20260906040842 84 0.0 3.0 0.00 0.00 0.00 68 1013.7
20260906040340 84 0.0 3.0 0.00 0.00 0.00 67 1013.7
20260906035838 84 139 1.0 4.0 0.00 0.00 0.00 67 1013.7
20260906035336 85 139 1.0 4.0 0.00 0.00 0.00 66 1013.8
20260906034832 85 0.0 4.0 0.00 0.00 0.00 65 1013.7
20260906034330 85 139 1.0 4.0 0.00 0.00 0.00 65 1013.8
20260906033828 85 139 1.0 7.0 0.00 0.00 0.00 65 1013.8
20260906033326 85 139 1.0 3.0 0.00 0.00 0.00 64 1013.7
20260906032822 86 139 1.0 7.0 0.00 0.00 0.00 64 1013.9
20260906032320 86 139 1.0 7.0 0.00 0.00 0.00 63 1013.8
20260906031818 86 139 1.0 4.0 0.00 0.00 0.00 63 1013.7
20260906031314 86 0.0 4.0 0.00 0.00 0.00 62 1013.7
20260906030812 86 139 2.0 4.0 0.00 0.00 0.00 62 1013.6
20260906030310 86 139 1.0 4.0 0.00 0.00 0.00 61 1013.5
20260906025806 87 0.0 4.0 0.00 0.00 0.00 61 1013.4
20260906025306 87 139 1.0 4.0 0.00 0.00 0.00 60 1013.2
20260906024802 87 0.0 5.0 0.00 0.00 0.00 59 1013.2
20260906024300 87 139 1.0 8.0 0.00 0.00 0.00 58 1013.1
20260906023756 87 138 2.0 8.0 0.00 0.00 0.00 57 1013.0
20260906023254 87 138 1.0 3.0 0.00 0.00 0.00 57 1012.9
20260906022752 88 0.0 4.0 0.00 0.00 0.00 56 1012.8
20260906022250 88 0.0 7.0 0.00 0.00 0.00 56 1012.6
20260906021746 88 0.0 7.0 0.00 0.00 0.00 55 1012.5
20260906021244 88 0.0 2.0 0.00 0.00 0.00 55 1012.4
20260906020742 88 0.0 3.0 0.00 0.00 0.00 55 1012.3
20260906020240 89 0.0 3.0 0.00 0.00 0.00 55 1012.3
20260906015736 89 138 1.0 4.0 0.00 0.00 0.00 55 1012.2
20260906015234 89 138 1.0 5.0 0.00 0.00 0.00 54 1012.0
20260906014732 89 0.0 5.0 0.00 0.00 0.00 54 1012.0
20260906014230 90 0.0 3.0 0.00 0.00 0.00 53 1011.8
20260906013725 90 1.0 8.0 0.00 0.00 0.00 53 1011.9
20260906013225 90 0.0 8.0 0.00 0.00 0.00 53 1011.9
20260906012723 90 137 3.0 8.0 0.00 0.00 0.00 52 1011.8
20260906012221 91 0.0 5.0 0.00 0.00 0.00 53 1011.7
20260906011717 91 0.0 5.0 0.00 0.00 0.00 52 1011.6
20260906011215 91 175 1.0 5.0 0.00 0.00 0.00 52 1011.6
20260906010713 91 175 1.0 3.0 0.00 0.00 0.00 52 1011.6
20260906010211 92 0.0 2.0 0.00 0.00 0.00 52 1011.5
20260906005707 92 175 1.0 6.0 0.00 0.00 0.00 51 1011.5
20260906005205 92 175 1.0 6.0 0.00 0.00 0.00 51 1011.5
20260906004703 92 0.0 4.0 0.00 0.00 0.00 50 1011.5
20260906004201 93 175 1.0 4.0 0.00 0.00 0.00 50 1011.6
20260906003657 93 176 1.0 4.0 0.00 0.00 0.00 49 1011.6
20260906003155 94 0.0 3.0 0.00 0.00 0.00 49 1011.6
20260906002653 94 176 1.0 4.0 0.00 0.00 0.00 49 1011.5
20260906002151 94 176 1.0 4.0 0.00 0.00 0.00 48 1011.4
20260906001647 94 1.0 7.0 0.00 0.00 0.00 47 1011.4
20260906001145 95 179 1.0 8.0 0.00 0.00 0.00 46 1011.4
20260906000643 95 1.0 4.0 0.00 0.00 0.00 45 1011.4
20260906000141 96 181 1.0 4.0 0.00 0.00 0.00 42 1011.4
20260905235637 96 0.0 0.0 0.00 0.00 0.00 41 1011.4
20260905235135 96 0.0 3.0 0.00 0.00 0.00 41 1011.3
20260905234631 97 0.0 3.0 0.00 0.00 0.00 39 1011.2
20260905234129 97 181 1.0 3.0 0.00 0.00 0.00 40 1011.1
20260905233627 97 0.0 2.0 0.00 0.00 0.00 39 1011.1
20260905233125 97 0.0 3.0 0.00 0.00 0.00 39 1011.2
20260905232621 97 0.0 2.0 0.00 0.00 0.00 40 1011.2
20260905232119 97 0.0 2.0 0.00 0.00 0.00 41 1011.2
20260905231617 97 0.0 3.0 0.00 0.00 0.00 41 1011.2
20260905231115 97 0.0 6.0 0.00 0.00 0.00 41 1011.2
20260905230611 98 181 2.0 6.0 0.00 0.00 0.00 40 1011.1
20260905230109 98 181 1.0 4.0 0.00 0.00 0.00 39 1011.2
20260905225607 98 181 1.0 4.0 0.00 0.00 0.00 39 1011.1
20260905225105 99 181 1.0 4.0 0.00 0.00 0.00 38 1011.1
20260905224601 99 0.0 2.0 0.00 0.00 0.00 39 1011.2
20260905224059 99 181 1.0 5.0 0.00 0.00 0.00 38 1011.1
20260905223557 99 181 1.0 5.0 0.00 0.00 0.00 38 1011.2
20260905223055 99 0.0 3.0 0.00 0.00 0.00 38 1011.2
20260905222551 99 181 1.0 5.0 0.00 0.00 0.00 38 1011.2
20260905222049 99 181 2.0 5.0 0.00 0.00 0.00 38 1011.2
20260905221547 99 0.0 5.0 0.00 0.00 0.00 38 1011.3
20260905221045 99 0.0 5.0 0.00 0.00 0.00 38 1011.3
20260905220541 99 1.0 4.0 0.00 0.00 0.00 38 1011.3
20260905220039 99 181 1.0 4.0 0.00 0.00 0.00 38 1011.4
20260905215537 99 181 1.0 4.0 0.00 0.00 0.00 36 1011.4
20260905215035 100 181 1.0 4.0 0.00 0.00 0.00 37 1011.4
20260905214531 99 0.0 3.0 0.00 0.00 0.00 38 1011.4
20260905214029 99 0.0 3.0 0.00 0.00 0.00 38 1011.4
20260905213527 99 181 1.0 3.0 0.00 0.00 0.00 39 1011.5
20260905213025 99 0.0 4.0 0.00 0.00 0.00 39 1011.6
20260905212521 99 181 1.0 4.0 0.00 0.00 0.00 38 1011.6
20260905212019 100 0.0 6.0 0.00 0.00 0.00 38 1011.8
20260905211517 99 0.0 6.0 0.00 0.00 0.00 38 1011.8
20260905211015 99 0.0 5.0 0.00 0.00 0.00 39 1011.8
20260905210511 99 181 1.0 5.0 0.00 0.00 0.00 38 1011.8
20260905210009 98 0.0 5.0 0.00 0.00 0.00 39 1011.9
20260905205505 98 181 1.0 5.0 0.00 0.00 0.00 39 1011.9
20260905205003 99 0.0 4.0 0.00 0.00 0.00 39 1012.0
20260905204501 99 0.0 5.0 0.00 0.00 0.00 39 1012.1
20260905203959 98 0.0 5.0 0.00 0.00 0.00 39 1012.2
20260905203455 98 181 1.0 5.0 0.00 0.00 0.00 39 1012.4
20260905202953 99 181 1.0 6.0 0.00 0.00 0.00 38 1012.4
20260905202450 99 181 1.0 6.0 0.00 0.00 0.00 38 1012.4
20260905201948 99 0.0 2.0 0.00 0.00 0.00 39 1012.4
20260905201444 98 0.0 2.0 0.00 0.00 0.00 40 1012.5
20260905200942 97 0.0 3.0 0.00 0.00 0.00 42 1012.6
20260905200440 97 0.0 3.0 0.00 0.00 0.00 40 1012.6
20260905195938 98 0.0 4.0 0.00 0.00 0.00 41 1012.8
20260905195434 98 181 1.0 5.0 0.00 0.00 0.00 41 1012.9
20260905194932 97 0.0 4.0 0.00 0.00 0.00 41 1012.9
20260905194430 97 180 1.0 4.0 0.00 0.00 0.00 42 1013.0
20260905193928 96 180 1.0 7.0 0.00 0.00 0.00 43 1013.0
20260905193424 96 180 1.0 7.0 0.00 0.00 0.00 43 1013.1
20260905192922 96 180 1.0 5.0 0.00 0.00 0.00 43 1013.2
20260905192420 96 180 1.0 5.0 0.00 0.00 0.00 44 1013.3
20260905191918 95 0.0 6.0 0.00 0.00 0.00 44 1013.5
20260905191414 95 180 1.0 6.0 0.00 0.00 0.00 44 1013.5
20260905190912 95 180 1.0 5.0 0.00 0.00 0.00 44 1013.6
20260905190410 94 1.0 4.0 0.00 0.00 0.00 46 1013.7
20260905185908 93 0.0 5.0 0.00 0.00 0.00 46 1013.7
20260905185404 93 180 1.0 5.0 0.00 0.00 0.00 48 1013.9
20260905184902 93 0.0 4.0 0.00 0.00 0.00 48 1014.0
20260905184400 93 0.0 3.0 0.00 0.00 0.00 48 1014.1
20260905183858 94 180 1.0 3.0 0.00 0.00 0.00 46 1014.2
20260905183354 95 180 1.0 6.0 0.00 0.00 0.00 46 1014.3
20260905182852 95 180 1.0 6.0 0.00 0.00 0.00 47 1014.3
20260905182348 94 180 1.0 4.0 0.00 0.00 0.00 48 1014.3
20260905181846 94 0.0 4.0 0.00 0.00 0.00 49 1014.4
20260905181344 94 0.0 5.0 0.00 0.00 0.00 48 1014.5
20260905180842 94 180 1.0 8.0 0.00 0.00 0.00 47 1014.6
20260905180338 95 180 4.0 8.0 0.00 0.00 0.00 46 1014.8
20260905175836 95 0.0 7.0 0.00 0.00 0.00 48 1014.7
20260905175334 94 0.0 6.0 0.00 0.00 0.00 47 1014.9
20260905174832 94 1.0 6.0 0.00 0.00 0.00 47 1015.1
20260905174328 95 0.0 5.0 0.00 0.00 0.00 46 1015.1
20260905173826 94 179 1.0 5.0 0.00 0.00 0.00 44 1015.1
20260905173324 93 0.0 4.0 0.00 0.00 0.00 50 1015.2
20260905172822 93 179 1.0 4.0 0.00 0.00 0.00 49 1015.3
20260905172318 93 179 1.0 4.0 0.00 0.00 0.00 47 1015.3
20260905171816 93 179 1.0 4.0 0.00 0.00 0.00 53 1015.3
20260905171314 92 0.0 3.0 0.00 0.00 0.00 54 1015.3
20260905170812 91 179 1.0 4.0 0.00 0.00 0.00 55 1015.4
20260905170308 91 179 1.0 7.0 0.00 0.00 0.00 55 1015.5
20260905165806 91 179 1.0 7.0 0.00 0.00 0.00 54 1015.5
20260905165306 91 179 1.0 6.0 0.00 0.00 0.00 54 1015.6
20260905164802 90 179 1.0 5.0 0.00 0.00 0.00 56 1015.6
20260905164258 90 179 2.0 5.0 0.00 0.00 0.00 58 1015.6
20260905163756 90 179 1.0 5.0 0.00 0.00 0.00 58 1015.6
20260905163254 90 179 1.0 4.0 0.00 0.00 0.00 58 1015.6
20260905162752 90 179 1.0 4.0 0.00 0.00 0.00 57 1015.7
20260905162248 90 1.0 5.0 0.00 0.00 0.00 59 1015.7
20260905161746 90 179 1.0 5.0 0.00 0.00 0.00 59 1015.6
20260905161244 89 179 1.0 4.0 0.00 0.00 0.00 61 1015.6
20260905160742 89 1.0 5.0 0.00 0.00 0.00 63 1015.5
20260905160238 88 179 2.0 5.0 0.00 0.00 0.00 62 1015.5
20260905155736 88 0.0 5.0 0.00 0.00 0.00 64 1015.4
20260905155232 88 179 1.0 5.0 0.00 0.00 0.00 65 1015.5
20260905154730 88 179 1.0 5.0 0.00 0.00 0.00 65 1015.5
20260905154228 87 0.0 6.0 0.00 0.00 0.00 66 1015.5
20260905153726 87 1.0 6.0 0.00 0.00 0.00 66 1015.5
20260905153222 87 179 1.0 5.0 0.00 0.00 0.00 68 1015.6
20260905152720 86 179 1.0 5.0 0.00 0.00 0.00 69 1015.5
20260905152218 86 0.0 4.0 0.00 0.00 0.00 70 1015.6
20260905151716 86 179 1.0 3.0 0.00 0.00 0.00 69 1015.6
20260905151212 85 1.0 3.0 0.00 0.00 0.00 72 1015.5
20260905150710 84 0.0 3.0 0.00 0.00 0.00 73 1015.5
20260905150208 84 0.0 3.0 0.00 0.00 0.00 76 1015.6
20260905145706 83 179 1.0 3.0 0.00 0.00 0.00 78 1015.6
20260905145202 83 0.0 4.0 0.00 0.00 0.00 79 1015.5
20260905144700 83 1.0 4.0 0.00 0.00 0.00 80 1015.6
20260905144158 82 0.0 4.0 0.00 0.00 0.00 79 1015.6
20260905143656 82 0.0 4.0 0.00 0.00 0.00 82 1015.6
20260905143152 81 179 1.0 4.0 0.00 0.00 0.00 81 1015.6
20260905142650 81 0.0 4.0 0.00 0.00 0.00 83 1015.6
20260905142148 80 0.0 3.0 0.00 0.00 0.00 85 1015.7
20260905141646 80 179 1.0 3.0 0.00 0.00 0.00 86 1015.6
20260905141142 80 0.0 3.0 0.00 0.00 0.00 88 1015.6
20260905140640 79 0.0 4.0 0.00 0.00 0.00 88 1015.5
20260905140138 79 179 1.0 4.0 0.00 0.00 0.00 89 1015.4
20260905135636 79 0.0 5.0 0.00 0.01 0.00 89 1015.5
20260905135132 79 0.0 5.0 0.00 0.01 0.00 89 1015.5
20260905134630 79 179 1.0 3.0 0.00 0.01 0.00 90 1015.4
20260905134128 78 0.0 5.0 0.00 0.01 0.00 90 1015.4
20260905133626 78 179 1.0 5.0 0.00 0.01 0.00 91 1015.3
20260905133122 78 0.0 3.0 0.00 0.01 0.00 92 1015.2
20260905132620 77 179 1.0 3.0 0.00 0.01 0.00 92 1015.2
20260905132118 77 0.0 0.0 0.00 0.01 0.00 92 1015.2
20260905131616 77 0.0 1.0 0.00 0.01 0.00 93 1015.1
20260905131112 77 0.0 1.0 0.00 0.01 0.00 93 1015.0
20260905130610 76 0.0 0.0 0.00 0.01 0.00 93 1014.9
20260905130106 76 0.0 0.0 0.00 0.01 0.00 94 1014.9
20260905125604 76 0.0 0.0 0.00 0.03 0.00 94 1014.8
20260905125102 76 0.0 0.0 0.00 0.03 0.00 93 1014.8
20260905124600 75 0.0 0.0 0.00 0.03 0.00 93 1014.7
20260905124056 75 0.0 0.0 0.00 0.03 0.00 93 1014.6
20260905123554 75 0.0 0.0 0.00 0.03 0.00 93 1014.6
20260905123052 75 0.0 0.0 0.00 0.03 0.00 93 1014.6
20260905122550 75 0.0 0.0 0.00 0.03 0.00 92 1014.6
20260905122046 75 0.0 0.0 0.00 0.03 0.00 92 1014.6
20260905121544 75 0.0 0.0 0.00 0.03 0.00 92 1014.5
20260905121042 75 0.0 0.0 0.00 0.03 0.00 92 1014.4
20260905120540 75 0.0 0.0 0.00 0.03 0.00 92 1014.3
20260905120036 75 0.0 0.0 0.00 0.03 0.00 92 1014.3
20260905115534 75 0.0 0.0 0.00 0.03 0.00 92 1014.3
20260905115032 75 0.0 0.0 0.00 0.03 0.00 92 1014.2
20260905114530 75 0.0 0.0 0.00 0.03 0.00 91 1014.2
20260905114026 75 0.0 0.0 0.00 0.03 0.00 91 1014.3
20260905113524 75 0.0 0.0 0.00 0.03 0.00 91 1014.2
20260905113022 75 0.0 0.0 0.00 0.03 0.00 91 1014.3
20260905112520 75 0.0 0.0 0.00 0.03 0.00 91 1014.2
20260905112016 76 0.0 0.0 0.00 0.03 0.00 91 1014.1
20260905111514 76 0.0 0.0 0.00 0.03 0.00 91 1014.1
20260905111012 76 0.0 0.0 0.00 0.03 0.00 91 1014.0
20260905110510 76 0.0 0.0 0.00 0.03 0.00 91 1013.9
20260905110006 76 0.0 0.0 0.00 0.03 0.00 91 1014.0
20260905105504 76 0.0 0.0 0.00 0.03 0.00 90 1014.0
20260905105002 76 0.0 0.0 0.00 0.03 0.00 90 1014.0
20260905104500 76 0.0 0.0 0.00 0.03 0.00 90 1013.9
20260905103956 76 0.0 0.0 0.00 0.03 0.00 90 1013.9
20260905103454 76 0.0 0.0 0.00 0.03 0.00 90 1013.9
20260905102950 76 0.0 0.0 0.00 0.03 0.00 90 1013.9
20260905102448 76 0.0 0.0 0.00 0.03 0.00 89 1014.0
20260905101946 77 0.0 0.0 0.00 0.03 0.00 89 1014.0
20260905101444 77 0.0 0.0 0.00 0.03 0.00 89 1014.0
20260905100940 77 0.0 0.0 0.00 0.03 0.00 89 1014.0
20260905100438 77 0.0 0.0 0.00 0.03 0.00 88 1014.0
20260905095936 77 0.0 0.0 0.00 0.03 0.00 88 1014.1
20260905095434 77 0.0 0.0 0.00 0.03 0.00 88 1014.1
20260905094930 77 0.0 0.0 0.00 0.03 0.00 88 1014.0
20260905094428 77 0.0 0.0 0.00 0.03 0.00 88 1013.9
20260905093926 77 0.0 1.0 0.00 0.03 0.00 88 1014.0
20260905093424 77 0.0 2.0 0.00 0.03 0.00 88 1014.0
20260905092920 78 0.0 2.0 0.00 0.03 0.00 88 1013.8
20260905092418 78 0.0 2.0 0.00 0.03 0.00 88 1013.8
20260905091916 78 0.0 2.0 0.00 0.03 0.00 88 1013.9
20260905091414 78 0.0 1.0 0.00 0.03 0.00 87 1014.0
20260905090910 78 0.0 1.0 0.00 0.03 0.00 87 1013.9
20260905090408 78 0.0 0.0 0.00 0.03 0.00 87 1013.9
20260905085906 78 0.0 0.0 0.00 0.03 0.00 87 1014.0
20260905085404 78 0.0 0.0 0.00 0.03 0.00 86 1014.0
20260905084900 78 0.0 3.0 0.00 0.03 0.00 86 1014.0
20260905084358 79 0.0 3.0 0.00 0.03 0.00 86 1014.1
20260905083856 79 0.0 2.0 0.00 0.03 0.00 86 1014.1
20260905083353 79 0.0 2.0 0.00 0.03 0.00 86 1014.1
20260905082849 79 0.0 2.0 0.00 0.03 0.00 85 1014.0
20260905082347 79 0.0 2.0 0.00 0.03 0.00 85 1014.1
20260905081846 79 0.0 2.0 0.00 0.03 0.00 85 1014.1
20260905081343 79 0.0 2.0 0.00 0.03 0.00 85 1014.1
20260905080839 79 0.0 2.0 0.00 0.03 0.00 85 1014.1
20260905080337 79 0.0 2.0 0.00 0.03 0.00 84 1014.1
20260905075833 79 0.0 1.0 0.00 0.03 0.00 84 1014.1
20260905075331 79 0.0 0.0 0.00 0.03 0.00 84 1014.1
20260905074829 79 0.0 0.0 0.00 0.03 0.00 83 1014.1
20260905074327 79 0.0 0.0 0.00 0.03 0.00 83 1014.2
20260905073823 79 0.0 0.0 0.00 0.03 0.00 82 1014.2
20260905073321 79 0.0 0.0 0.00 0.03 0.00 82 1014.2
20260905072819 79 0.0 0.0 0.00 0.03 0.00 82 1014.3
20260905072317 79 0.0 2.0 0.00 0.03 0.00 82 1014.3
20260905071813 79 0.0 2.0 0.00 0.03 0.00 81 1014.3
20260905071311 79 0.0 0.0 0.00 0.03 0.00 81 1014.3
20260905070809 79 0.0 0.0 0.00 0.03 0.00 81 1014.3
20260905070307 79 0.0 0.0 0.00 0.03 0.00 80 1014.4
20260905065803 79 0.0 2.0 0.00 0.03 0.00 80 1014.4
20260905065301 80 0.0 5.0 0.00 0.03 0.00 80 1014.4
20260905064759 80 0.0 5.0 0.00 0.03 0.00 80 1014.5
20260905064257 80 1.0 5.0 0.00 0.03 0.00 79 1014.5
20260905063753 80 0.0 3.0 0.00 0.03 0.00 79 1014.6
20260905063251 80 0.0 3.0 0.00 0.03 0.00 79 1014.6
20260905062749 80 0.0 1.0 0.00 0.03 0.00 79 1014.5
20260905062247 80 0.0 3.0 0.00 0.03 0.00 78 1014.5
20260905061743 80 0.0 3.0 0.00 0.03 0.00 78 1014.6
20260905061241 80 0.0 5.0 0.00 0.03 0.00 78 1014.6
20260905060739 80 0.0 3.0 0.00 0.03 0.00 77 1014.6
20260905060237 80 0.0 2.0 0.00 0.03 0.00 77 1014.6
20260905055733 80 0.0 5.0 0.00 0.03 0.00 77 1014.6
20260905055231 80 0.0 5.0 0.00 0.03 0.00 76 1014.5
20260905054729 81 160 1.0 5.0 0.00 0.03 0.00 76 1014.6
20260905054227 81 0.0 3.0 0.00 0.03 0.00 76 1014.7
20260905053723 81 160 1.0 3.0 0.00 0.03 0.00 75 1014.6
20260905053221 81 0.0 3.0 0.00 0.03 0.00 75 1014.6
20260905052719 81 160 1.0 6.0 0.00 0.03 0.00 75 1014.5
20260905052215 81 160 2.0 8.0 0.00 0.03 0.00 75 1014.6
20260905051713 81 159 1.0 6.0 0.00 0.03 0.00 75 1014.7
20260905051211 81 159 2.0 6.0 0.00 0.03 0.00 75 1014.7
20260905050707 81 0.0 2.0 0.00 0.03 0.00 75 1014.8
20260905050205 81 0.0 0.0 0.00 0.03 0.00 75 1014.8